Погода в Старом Сибае

Россия / Республика Башкортостан     52°42′16″N   58°34′23″E
темп.,
°C
ветер,
м/с
пор.,
м/с
влажн.,
%
обл.,
%
осадки,
мм/ч
давл.,
гПа
погр.,
м
1 декабря, ср
ср123:00−3ю51588100 0.0 1012359
02:00−2ю61795100 1.8 1010463
05:00−1ю61596100 2.7 1009420
08:00−1ю51198100 0.4 1007325
11:00−1ю51393100 0.5 1007355
14:000ююв51891100 0.0 1004520
17:00+1ююв6199064 0.0 1001636
20:00+1ю8189172 0.0 999535
2 декабря, чт
чт223:000ю5129295 0.0 999341
02:000ююз41095100 0.0 998334
05:00+1юз31197100 0.0 998414
08:00+1зюз41098100 0.0 1000493
11:00−1зсз51191100 0.0 1004562
14:00−2зсз51083100 0.0 1006684
17:00−5з4108399 0.0 1008246
20:00−6з414825 0.0 1010339
3 декабря, пт
пт323:00−5з617869 0.0 1012484
02:00−5з6148744 0.0 1013490
05:00−6зюз61488100 0.0 1014461
08:00−6з81684100 0.0 1016512
11:00−6зюз8158676 0.0 1018503
14:00−4зюз7168527 0.0 1019667
17:00−4зюз7188513 0.0 1020499
20:00−4зюз8188699 0.0 1022482
4 декабря, сб
сб423:00−3з61686100 0.0 1023447
02:00−2зюз3889100 0.0 1024305
05:00−2зюз3991100 0.0 1025315
08:00−1юз3993100 0.0 1026374
11:000юз31094100 0.0 1027481
14:00+1юз4129396 0.0 1026510
17:00−2юз339348 0.0 102733
20:00−5зюз349323 0.0 102848
5 декабря, вс
вс523:00−5юз359193 0.0 102795
02:00−6зюз359186 0.0 102688
05:00−7зюз339160 0.0 102547
08:00−6зюз3492100 0.0 102454
11:00−5зюз368849 0.0 1024138
14:00−3юз368515 0.0 1022208
17:00−5зюз3289100 0.0 102329
20:00−6зюз3289100 0.0 102327